owner,sensor,date,latitude,longitude,vertical_datum,sea_water_temperature,qcFlag
Murphy,ioos:station:wmo:42397:2,2023-02-01T00:01:00Z,28.7547,-88.2673,28.2,22.6,11111222
Murphy,ioos:station:wmo:42397:2,2023-02-01T00:21:00Z,28.7547,-88.2673,28.2,22.6,11111222
Murphy,ioos:station:wmo:42397:2,2023-02-01T00:41:00Z,28.7547,-88.2673,28.2,22.6,11111222
Murphy,ioos:station:wmo:42397:2,2023-02-01T01:01:00Z,28.7547,-88.2673,28.2,22.6,11111222
Murphy,ioos:station:wmo:42397:2,2023-02-01T01:21:00Z,28.7547,-88.2673,28.2,22.6,11111222
Murphy,ioos:station:wmo:42397:2,2023-02-01T01:40:00Z,28.7547,-88.2673,28.2,22.6,11111222
Murphy,ioos:station:wmo:42397:2,2023-02-01T02:00:00Z,28.7547,-88.2673,28.2,22.6,11111222
Murphy,ioos:station:wmo:42397:2,2023-02-01T02:20:00Z,28.7547,-88.2673,28.2,22.6,11111222
Murphy,ioos:station:wmo:42397:2,2023-02-01T02:40:00Z,28.7547,-88.2673,28.2,22.6,11111222
Murphy,ioos:station:wmo:42397:2,2023-02-01T03:00:00Z,28.7547,-88.2673,28.2,22.6,11111222
Murphy,ioos:station:wmo:42397:2,2023-02-01T03:19:00Z,28.7547,-88.2673,28.2,22.7,11111222
Murphy,ioos:station:wmo:42397:2,2023-02-01T03:39:00Z,28.7547,-88.2673,28.2,22.7,11111222
Murphy,ioos:station:wmo:42397:2,2023-02-01T03:58:00Z,28.7547,-88.2673,28.2,22.7,11111222
Murphy,ioos:station:wmo:42397:2,2023-02-01T04:17:00Z,28.7547,-88.2673,28.2,22.7,11111222
Murphy,ioos:station:wmo:42397:2,2023-02-01T04:37:00Z,28.7547,-88.2673,28.2,22.7,11111222
Murphy,ioos:station:wmo:42397:2,2023-02-01T04:57:00Z,28.7547,-88.2673,28.2,22.7,11111222
Murphy,ioos:station:wmo:42397:2,2023-02-01T05:17:00Z,28.7547,-88.2673,28.2,22.7,11111222
Murphy,ioos:station:wmo:42397:2,2023-02-01T05:37:00Z,28.7547,-88.2673,28.2,22.6,11111222
Murphy,ioos:station:wmo:42397:2,2023-02-01T05:57:00Z,28.7547,-88.2673,28.2,22.6,11111222
Murphy,ioos:station:wmo:42397:2,2023-02-01T06:17:00Z,28.7547,-88.2673,28.2,22.6,11111222
Murphy,ioos:station:wmo:42397:2,2023-02-01T06:37:00Z,28.7547,-88.2673,28.2,22.7,11111222
Murphy,ioos:station:wmo:42397:2,2023-02-01T06:57:00Z,28.7547,-88.2673,28.2,22.7,11111222
Murphy,ioos:station:wmo:42397:2,2023-02-01T07:17:00Z,28.7547,-88.2673,28.2,22.7,11111222
Murphy,ioos:station:wmo:42397:2,2023-02-01T07:37:00Z,28.7547,-88.2673,28.2,22.7,11111222
Murphy,ioos:station:wmo:42397:2,2023-02-01T07:57:00Z,28.7547,-88.2673,28.2,22.7,11111222
Murphy,ioos:station:wmo:42397:2,2023-02-01T08:17:00Z,28.7547,-88.2673,28.2,22.7,11111222
Murphy,ioos:station:wmo:42397:2,2023-02-01T08:37:00Z,28.7547,-88.2673,28.2,22.7,11111222
Murphy,ioos:station:wmo:42397:2,2023-02-01T08:57:00Z,28.7547,-88.2673,28.2,22.7,11111222
Murphy,ioos:station:wmo:42397:2,2023-02-01T09:17:00Z,28.7547,-88.2673,28.2,22.8,11111222
Murphy,ioos:station:wmo:42397:2,2023-02-01T09:37:00Z,28.7547,-88.2673,28.2,22.8,11111222
Murphy,ioos:station:wmo:42397:2,2023-02-01T09:57:00Z,28.7547,-88.2673,28.2,22.8,11111222
Murphy,ioos:station:wmo:42397:2,2023-02-01T10:17:00Z,28.7547,-88.2673,28.2,22.8,11111222
Murphy,ioos:station:wmo:42397:2,2023-02-01T10:36:00Z,28.7547,-88.2673,28.2,22.8,11111222
Murphy,ioos:station:wmo:42397:2,2023-02-01T10:56:00Z,28.7547,-88.2673,28.2,22.8,11111222
Murphy,ioos:station:wmo:42397:2,2023-02-01T11:16:00Z,28.7547,-88.2673,28.2,22.8,11111222
Murphy,ioos:station:wmo:42397:2,2023-02-01T11:36:00Z,28.7547,-88.2673,28.2,22.8,11111222
Murphy,ioos:station:wmo:42397:2,2023-02-01T11:56:00Z,28.7547,-88.2673,28.2,22.8,11111222
Murphy,ioos:station:wmo:42397:2,2023-02-01T12:16:00Z,28.7547,-88.2673,28.2,22.8,11111222
Murphy,ioos:station:wmo:42397:2,2023-02-01T12:36:00Z,28.7547,-88.2673,28.2,22.8,11111222
Murphy,ioos:station:wmo:42397:2,2023-02-01T12:56:00Z,28.7547,-88.2673,28.2,22.8,11111222
Murphy,ioos:station:wmo:42397:2,2023-02-01T13:16:00Z,28.7547,-88.2673,28.2,22.7,11111222
Murphy,ioos:station:wmo:42397:2,2023-02-01T13:36:00Z,28.7547,-88.2673,28.2,22.7,11111222
Murphy,ioos:station:wmo:42397:2,2023-02-01T13:56:00Z,28.7547,-88.2673,28.2,22.7,11111222
Murphy,ioos:station:wmo:42397:2,2023-02-01T14:16:00Z,28.7547,-88.2673,28.2,22.7,11111222
Murphy,ioos:station:wmo:42397:2,2023-02-01T14:36:00Z,28.7547,-88.2673,28.2,22.6,11111222
Murphy,ioos:station:wmo:42397:2,2023-02-01T14:56:00Z,28.7547,-88.2673,28.2,22.6,11111222
Murphy,ioos:station:wmo:42397:2,2023-02-01T15:16:00Z,28.7547,-88.2673,28.2,22.6,11111222
Murphy,ioos:station:wmo:42397:2,2023-02-01T15:36:00Z,28.7547,-88.2673,28.2,22.6,11111222
Murphy,ioos:station:wmo:42397:2,2023-02-01T15:56:00Z,28.7547,-88.2673,28.2,22.6,11111222
Murphy,ioos:station:wmo:42397:2,2023-02-01T16:16:00Z,28.7547,-88.2673,28.2,22.6,11111222
Murphy,ioos:station:wmo:42397:2,2023-02-01T16:35:00Z,28.7547,-88.2673,28.2,22.6,11111222
Murphy,ioos:station:wmo:42397:2,2023-02-01T16:54:00Z,28.7547,-88.2673,28.2,22.6,11111222
Murphy,ioos:station:wmo:42397:2,2023-02-01T17:13:00Z,28.7547,-88.2673,28.2,22.6,11111222
Murphy,ioos:station:wmo:42397:2,2023-02-01T17:33:00Z,28.7547,-88.2673,28.2,22.6,11111222
Murphy,ioos:station:wmo:42397:2,2023-02-01T17:53:00Z,28.7547,-88.2673,28.2,22.6,11111222
Murphy,ioos:station:wmo:42397:2,2023-02-01T18:13:00Z,28.7547,-88.2673,28.2,22.6,11111222
Murphy,ioos:station:wmo:42397:2,2023-02-01T18:33:00Z,28.7547,-88.2673,28.2,22.6,11111222
Murphy,ioos:station:wmo:42397:2,2023-02-01T18:52:00Z,28.7547,-88.2673,28.2,22.6,11111222
Murphy,ioos:station:wmo:42397:2,2023-02-01T19:12:00Z,28.7547,-88.2673,28.2,22.6,11111222
Murphy,ioos:station:wmo:42397:2,2023-02-01T19:31:00Z,28.7547,-88.2673,28.2,22.6,11111222
Murphy,ioos:station:wmo:42397:2,2023-02-01T19:51:00Z,28.7547,-88.2673,28.2,22.6,11111222
Murphy,ioos:station:wmo:42397:2,2023-02-01T20:11:00Z,28.7547,-88.2673,28.2,22.5,11111222
Murphy,ioos:station:wmo:42397:2,2023-02-01T20:31:00Z,28.7547,-88.2673,28.2,22.5,11111222
Murphy,ioos:station:wmo:42397:2,2023-02-01T20:50:00Z,28.7547,-88.2673,28.2,22.5,11111222
Murphy,ioos:station:wmo:42397:2,2023-02-01T21:10:00Z,28.7547,-88.2673,28.2,22.5,11111222
Murphy,ioos:station:wmo:42397:2,2023-02-01T21:29:00Z,28.7547,-88.2673,28.2,22.6,11111222
Murphy,ioos:station:wmo:42397:2,2023-02-01T21:49:00Z,28.7547,-88.2673,28.2,22.5,11111222
Murphy,ioos:station:wmo:42397:2,2023-02-01T22:09:00Z,28.7547,-88.2673,28.2,22.6,11111222
Murphy,ioos:station:wmo:42397:2,2023-02-01T22:29:00Z,28.7547,-88.2673,28.2,22.6,11111222
Murphy,ioos:station:wmo:42397:2,2023-02-01T22:49:00Z,28.7547,-88.2673,28.2,22.7,11111222
Murphy,ioos:station:wmo:42397:2,2023-02-01T23:09:00Z,28.7547,-88.2673,28.2,22.8,11111222
Murphy,ioos:station:wmo:42397:2,2023-02-01T23:28:00Z,28.7547,-88.2673,28.2,22.9,11111222
Murphy,ioos:station:wmo:42397:2,2023-02-01T23:48:00Z,28.7547,-88.2673,28.2,22.9,11111222
Murphy,ioos:station:wmo:42397:2,2023-02-02T00:08:00Z,28.7547,-88.2673,28.2,22.9,11111222
Murphy,ioos:station:wmo:42397:2,2023-02-02T00:28:00Z,28.7547,-88.2673,28.2,22.9,11111222
Murphy,ioos:station:wmo:42397:2,2023-02-02T00:48:00Z,28.7547,-88.2673,28.2,22.9,11111222
Murphy,ioos:station:wmo:42397:2,2023-02-02T01:08:00Z,28.7547,-88.2673,28.2,22.9,11111222
Murphy,ioos:station:wmo:42397:2,2023-02-02T01:28:00Z,28.7547,-88.2673,28.2,22.8,11111222
Murphy,ioos:station:wmo:42397:2,2023-02-02T01:48:00Z,28.7547,-88.2673,28.2,22.7,11111222
Murphy,ioos:station:wmo:42397:2,2023-02-02T02:08:00Z,28.7547,-88.2673,28.2,22.7,11111222
Murphy,ioos:station:wmo:42397:2,2023-02-02T02:28:00Z,28.7547,-88.2673,28.2,22.7,11111222
Murphy,ioos:station:wmo:42397:2,2023-02-02T02:48:00Z,28.7547,-88.2673,28.2,22.7,11111222
Murphy,ioos:station:wmo:42397:2,2023-02-02T03:07:00Z,28.7547,-88.2673,28.2,22.6,11111222
Murphy,ioos:station:wmo:42397:2,2023-02-02T03:27:00Z,28.7547,-88.2673,28.2,22.6,11111222
Murphy,ioos:station:wmo:42397:2,2023-02-02T03:47:00Z,28.7547,-88.2673,28.2,22.7,11111222
Murphy,ioos:station:wmo:42397:2,2023-02-02T04:07:00Z,28.7547,-88.2673,28.2,22.7,11111222
Murphy,ioos:station:wmo:42397:2,2023-02-02T04:27:00Z,28.7547,-88.2673,28.2,22.7,11111222
Murphy,ioos:station:wmo:42397:2,2023-02-02T04:47:00Z,28.7547,-88.2673,28.2,22.6,11111222
Murphy,ioos:station:wmo:42397:2,2023-02-02T05:07:00Z,28.7547,-88.2673,28.2,22.7,11111222
Murphy,ioos:station:wmo:42397:2,2023-02-02T05:27:00Z,28.7547,-88.2673,28.2,22.7,11111222
Murphy,ioos:station:wmo:42397:2,2023-02-02T05:46:00Z,28.7547,-88.2673,28.2,22.7,11111222
Murphy,ioos:station:wmo:42397:2,2023-02-02T06:06:00Z,28.7547,-88.2673,28.2,22.7,11111222
Murphy,ioos:station:wmo:42397:2,2023-02-02T06:26:00Z,28.7547,-88.2673,28.2,22.7,11111222
Murphy,ioos:station:wmo:42397:2,2023-02-02T06:46:00Z,28.7547,-88.2673,28.2,22.8,11111222
Murphy,ioos:station:wmo:42397:2,2023-02-02T07:06:00Z,28.7547,-88.2673,28.2,22.7,11111222
Murphy,ioos:station:wmo:42397:2,2023-02-02T07:26:00Z,28.7547,-88.2673,28.2,22.6,11111222
Murphy,ioos:station:wmo:42397:2,2023-02-02T07:46:00Z,28.7547,-88.2673,28.2,22.6,11111222
Murphy,ioos:station:wmo:42397:2,2023-02-02T08:06:00Z,28.7547,-88.2673,28.2,22.6,11111222
Murphy,ioos:station:wmo:42397:2,2023-02-02T08:26:00Z,28.7547,-88.2673,28.2,22.6,11111222
Murphy,ioos:station:wmo:42397:2,2023-02-02T08:46:00Z,28.7547,-88.2673,28.2,22.7,11111222
Murphy,ioos:station:wmo:42397:2,2023-02-02T09:06:00Z,28.7547,-88.2673,28.2,22.6,11111222
Murphy,ioos:station:wmo:42397:2,2023-02-02T09:26:00Z,28.7547,-88.2673,28.2,22.7,11111222
Murphy,ioos:station:wmo:42397:2,2023-02-02T09:46:00Z,28.7547,-88.2673,28.2,22.7,11111222
Murphy,ioos:station:wmo:42397:2,2023-02-02T10:06:00Z,28.7547,-88.2673,28.2,22.7,11111222
Murphy,ioos:station:wmo:42397:2,2023-02-02T10:26:00Z,28.7547,-88.2673,28.2,22.7,11111222
Murphy,ioos:station:wmo:42397:2,2023-02-02T10:46:00Z,28.7547,-88.2673,28.2,22.7,11111222
Murphy,ioos:station:wmo:42397:2,2023-02-02T11:06:00Z,28.7547,-88.2673,28.2,22.7,11111222
Murphy,ioos:station:wmo:42397:2,2023-02-02T11:26:00Z,28.7547,-88.2673,28.2,22.7,11111222
Murphy,ioos:station:wmo:42397:2,2023-02-02T11:46:00Z,28.7547,-88.2673,28.2,22.7,11111222
Murphy,ioos:station:wmo:42397:2,2023-02-02T12:06:00Z,28.7547,-88.2673,28.2,22.6,11111222
Murphy,ioos:station:wmo:42397:2,2023-02-02T12:26:00Z,28.7547,-88.2673,28.2,22.6,11111222
Murphy,ioos:station:wmo:42397:2,2023-02-02T12:46:00Z,28.7547,-88.2673,28.2,22.7,11111222
Murphy,ioos:station:wmo:42397:2,2023-02-02T13:06:00Z,28.7547,-88.2673,28.2,22.7,11111222
Murphy,ioos:station:wmo:42397:2,2023-02-02T13:26:00Z,28.7547,-88.2673,28.2,22.8,11111222
Murphy,ioos:station:wmo:42397:2,2023-02-02T13:46:00Z,28.7547,-88.2673,28.2,22.8,11111222
Murphy,ioos:station:wmo:42397:2,2023-02-02T14:06:00Z,28.7547,-88.2673,28.2,22.8,11111222
Murphy,ioos:station:wmo:42397:2,2023-02-02T14:26:00Z,28.7547,-88.2673,28.2,22.8,11111222
Murphy,ioos:station:wmo:42397:2,2023-02-02T14:46:00Z,28.7547,-88.2673,28.2,22.9,11111222
Murphy,ioos:station:wmo:42397:2,2023-02-02T15:06:00Z,28.7547,-88.2673,28.2,22.9,11111222
Murphy,ioos:station:wmo:42397:2,2023-02-02T15:26:00Z,28.7547,-88.2673,28.2,22.8,11111222
Murphy,ioos:station:wmo:42397:2,2023-02-02T15:46:00Z,28.7547,-88.2673,28.2,22.7,11111222
Murphy,ioos:station:wmo:42397:2,2023-02-02T16:06:00Z,28.7547,-88.2673,28.2,22.7,11111222
Murphy,ioos:station:wmo:42397:2,2023-02-02T16:26:00Z,28.7547,-88.2673,28.2,22.7,11111222
Murphy,ioos:station:wmo:42397:2,2023-02-02T16:46:00Z,28.7547,-88.2673,28.2,22.7,11111222
Murphy,ioos:station:wmo:42397:2,2023-02-02T17:06:00Z,28.7547,-88.2673,28.2,22.6,11111222
Murphy,ioos:station:wmo:42397:2,2023-02-02T17:26:00Z,28.7547,-88.2673,28.2,22.7,11111222
Murphy,ioos:station:wmo:42397:2,2023-02-02T17:46:00Z,28.7547,-88.2673,28.2,22.7,11111222
Murphy,ioos:station:wmo:42397:2,2023-02-02T18:06:00Z,28.7547,-88.2673,28.2,22.7,11111222
Murphy,ioos:station:wmo:42397:2,2023-02-02T18:26:00Z,28.7547,-88.2673,28.2,22.7,11111222
Murphy,ioos:station:wmo:42397:2,2023-02-02T18:45:00Z,28.7547,-88.2673,28.2,22.7,11111222
Murphy,ioos:station:wmo:42397:2,2023-02-02T19:05:00Z,28.7547,-88.2673,28.2,22.7,11111222
Murphy,ioos:station:wmo:42397:2,2023-02-02T19:25:00Z,28.7547,-88.2673,28.2,22.7,11111222
Murphy,ioos:station:wmo:42397:2,2023-02-02T19:44:00Z,28.7547,-88.2673,28.2,22.7,11111222
Murphy,ioos:station:wmo:42397:2,2023-02-02T20:03:00Z,28.7547,-88.2673,28.2,22.8,11111222
Murphy,ioos:station:wmo:42397:2,2023-02-02T20:22:00Z,28.7547,-88.2673,28.2,22.8,11111222
Murphy,ioos:station:wmo:42397:2,2023-02-02T20:42:00Z,28.7547,-88.2673,28.2,22.8,11111222
Murphy,ioos:station:wmo:42397:2,2023-02-02T21:02:00Z,28.7547,-88.2673,28.2,22.9,11111222
Murphy,ioos:station:wmo:42397:2,2023-02-02T21:21:00Z,28.7547,-88.2673,28.2,22.9,11111222
Murphy,ioos:station:wmo:42397:2,2023-02-02T21:41:00Z,28.7547,-88.2673,28.2,22.9,11111222
Murphy,ioos:station:wmo:42397:2,2023-02-02T22:01:00Z,28.7547,-88.2673,28.2,22.8,11111222
Murphy,ioos:station:wmo:42397:2,2023-02-02T22:21:00Z,28.7547,-88.2673,28.2,22.8,11111222
Murphy,ioos:station:wmo:42397:2,2023-02-02T22:41:00Z,28.7547,-88.2673,28.2,22.8,11111222
Murphy,ioos:station:wmo:42397:2,2023-02-02T23:01:00Z,28.7547,-88.2673,28.2,22.8,11111222
Murphy,ioos:station:wmo:42397:2,2023-02-02T23:21:00Z,28.7547,-88.2673,28.2,22.8,11111222
Murphy,ioos:station:wmo:42397:2,2023-02-02T23:41:00Z,28.7547,-88.2673,28.2,22.8,11111222
Murphy,ioos:station:wmo:42397:2,2023-02-03T00:01:00Z,28.7547,-88.2673,28.2,22.8,11111222
Murphy,ioos:station:wmo:42397:2,2023-02-03T00:21:00Z,28.7547,-88.2673,28.2,22.8,11111222
Murphy,ioos:station:wmo:42397:2,2023-02-03T00:41:00Z,28.7547,-88.2673,28.2,22.8,11111222
Murphy,ioos:station:wmo:42397:2,2023-02-03T01:01:00Z,28.7547,-88.2673,28.2,22.8,11111222
Murphy,ioos:station:wmo:42397:2,2023-02-03T01:21:00Z,28.7547,-88.2673,28.2,22.7,11111222
Murphy,ioos:station:wmo:42397:2,2023-02-03T01:41:00Z,28.7547,-88.2673,28.2,22.8,11111222
Murphy,ioos:station:wmo:42397:2,2023-02-03T02:01:00Z,28.7547,-88.2673,28.2,22.7,11111222
Murphy,ioos:station:wmo:42397:2,2023-02-03T02:21:00Z,28.7547,-88.2673,28.2,22.7,11111222
Murphy,ioos:station:wmo:42397:2,2023-02-03T02:41:00Z,28.7547,-88.2673,28.2,22.7,11111222
Murphy,ioos:station:wmo:42397:2,2023-02-03T03:01:00Z,28.7547,-88.2673,28.2,22.7,11111222
Murphy,ioos:station:wmo:42397:2,2023-02-03T03:20:00Z,28.7547,-88.2673,28.2,22.7,11111222
Murphy,ioos:station:wmo:42397:2,2023-02-03T03:40:00Z,28.7547,-88.2673,28.2,22.8,11111222
Murphy,ioos:station:wmo:42397:2,2023-02-03T04:00:00Z,28.7547,-88.2673,28.2,22.8,11111222
Murphy,ioos:station:wmo:42397:2,2023-02-03T04:20:00Z,28.7547,-88.2673,28.2,22.8,11111222
Murphy,ioos:station:wmo:42397:2,2023-02-03T04:40:00Z,28.7547,-88.2673,28.2,22.8,11111222
Murphy,ioos:station:wmo:42397:2,2023-02-03T05:00:00Z,28.7547,-88.2673,28.2,22.7,11111222
Murphy,ioos:station:wmo:42397:2,2023-02-03T05:20:00Z,28.7547,-88.2673,28.2,22.7,11111222
Murphy,ioos:station:wmo:42397:2,2023-02-03T05:40:00Z,28.7547,-88.2673,28.2,22.7,11111222
Murphy,ioos:station:wmo:42397:2,2023-02-03T06:00:00Z,28.7547,-88.2673,28.2,22.7,11111222
Murphy,ioos:station:wmo:42397:2,2023-02-03T06:20:00Z,28.7547,-88.2673,28.2,22.7,11111222
Murphy,ioos:station:wmo:42397:2,2023-02-03T06:40:00Z,28.7547,-88.2673,28.2,22.7,11111222
Murphy,ioos:station:wmo:42397:2,2023-02-03T07:00:00Z,28.7547,-88.2673,28.2,22.8,11111222
Murphy,ioos:station:wmo:42397:2,2023-02-03T07:20:00Z,28.7547,-88.2673,28.2,22.9,11111222
Murphy,ioos:station:wmo:42397:2,2023-02-03T07:39:00Z,28.7547,-88.2673,28.2,23.1,11111222
Murphy,ioos:station:wmo:42397:2,2023-02-03T07:59:00Z,28.7547,-88.2673,28.2,23.0,11111222
Murphy,ioos:station:wmo:42397:2,2023-02-03T08:19:00Z,28.7547,-88.2673,28.2,23.0,11111222
Murphy,ioos:station:wmo:42397:2,2023-02-03T08:39:00Z,28.7547,-88.2673,28.2,22.9,11111222
Murphy,ioos:station:wmo:42397:2,2023-02-03T08:59:00Z,28.7547,-88.2673,28.2,23.0,11111222
Murphy,ioos:station:wmo:42397:2,2023-02-03T09:19:00Z,28.7547,-88.2673,28.2,23.1,11111222
Murphy,ioos:station:wmo:42397:2,2023-02-03T09:39:00Z,28.7547,-88.2673,28.2,23.1,11111222
Murphy,ioos:station:wmo:42397:2,2023-02-03T09:59:00Z,28.7547,-88.2673,28.2,23.1,11111222
Murphy,ioos:station:wmo:42397:2,2023-02-03T10:19:00Z,28.7547,-88.2673,28.2,23.1,11111222
Murphy,ioos:station:wmo:42397:2,2023-02-03T10:39:00Z,28.7547,-88.2673,28.2,23.1,11111222
Murphy,ioos:station:wmo:42397:2,2023-02-03T10:59:00Z,28.7547,-88.2673,28.2,23.1,11111222
Murphy,ioos:station:wmo:42397:2,2023-02-03T11:19:00Z,28.7547,-88.2673,28.2,23.1,11111222
Murphy,ioos:station:wmo:42397:2,2023-02-03T11:39:00Z,28.7547,-88.2673,28.2,23.1,11111222
Murphy,ioos:station:wmo:42397:2,2023-02-03T11:59:00Z,28.7547,-88.2673,28.2,23.1,11111222
Murphy,ioos:station:wmo:42397:2,2023-02-03T12:19:00Z,28.7547,-88.2673,28.2,23.1,11111222
Murphy,ioos:station:wmo:42397:2,2023-02-03T12:39:00Z,28.7547,-88.2673,28.2,23.1,11111222
Murphy,ioos:station:wmo:42397:2,2023-02-03T12:59:00Z,28.7547,-88.2673,28.2,23.1,11111222
Murphy,ioos:station:wmo:42397:2,2023-02-03T13:18:00Z,28.7547,-88.2673,28.2,23.1,11111222
Murphy,ioos:station:wmo:42397:2,2023-02-03T13:38:00Z,28.7547,-88.2673,28.2,23.0,11111222
Murphy,ioos:station:wmo:42397:2,2023-02-03T13:57:00Z,28.7547,-88.2673,28.2,22.9,11111222
Murphy,ioos:station:wmo:42397:2,2023-02-03T14:17:00Z,28.7547,-88.2673,28.2,22.9,11111222
Murphy,ioos:station:wmo:42397:2,2023-02-03T14:37:00Z,28.7547,-88.2673,28.2,22.9,11111222
Murphy,ioos:station:wmo:42397:2,2023-02-03T14:57:00Z,28.7547,-88.2673,28.2,22.8,11111222
Murphy,ioos:station:wmo:42397:2,2023-02-03T15:17:00Z,28.7547,-88.2673,28.2,22.8,11111222
Murphy,ioos:station:wmo:42397:2,2023-02-03T15:37:00Z,28.7547,-88.2673,28.2,22.8,11111222
Murphy,ioos:station:wmo:42397:2,2023-02-03T15:57:00Z,28.7547,-88.2673,28.2,22.7,11111222
Murphy,ioos:station:wmo:42397:2,2023-02-03T16:16:00Z,28.7547,-88.2673,28.2,22.7,11111222
Murphy,ioos:station:wmo:42397:2,2023-02-03T16:36:00Z,28.7547,-88.2673,28.2,22.7,11111222
Murphy,ioos:station:wmo:42397:2,2023-02-03T16:56:00Z,28.7547,-88.2673,28.2,22.6,11111222
Murphy,ioos:station:wmo:42397:2,2023-02-03T17:16:00Z,28.7547,-88.2673,28.2,22.6,11111222
Murphy,ioos:station:wmo:42397:2,2023-02-03T17:36:00Z,28.7547,-88.2673,28.2,22.6,11111222
Murphy,ioos:station:wmo:42397:2,2023-02-03T17:56:00Z,28.7547,-88.2673,28.2,22.6,11111222
Murphy,ioos:station:wmo:42397:2,2023-02-03T18:16:00Z,28.7547,-88.2673,28.2,22.6,11111222
Murphy,ioos:station:wmo:42397:2,2023-02-03T18:36:00Z,28.7547,-88.2673,28.2,22.6,11111222
Murphy,ioos:station:wmo:42397:2,2023-02-03T18:55:00Z,28.7547,-88.2673,28.2,22.6,11111222
Murphy,ioos:station:wmo:42397:2,2023-02-03T19:14:00Z,28.7547,-88.2673,28.2,22.6,11111222
Murphy,ioos:station:wmo:42397:2,2023-02-03T19:34:00Z,28.7547,-88.2673,28.2,22.6,11111222
Murphy,ioos:station:wmo:42397:2,2023-02-03T19:53:00Z,28.7547,-88.2673,28.2,22.6,11111222
Murphy,ioos:station:wmo:42397:2,2023-02-03T20:13:00Z,28.7547,-88.2673,28.2,22.6,11111222
Murphy,ioos:station:wmo:42397:2,2023-02-03T20:33:00Z,28.7547,-88.2673,28.2,22.6,11111222
Murphy,ioos:station:wmo:42397:2,2023-02-03T20:53:00Z,28.7547,-88.2673,28.2,22.6,11111222
Murphy,ioos:station:wmo:42397:2,2023-02-03T21:13:00Z,28.7547,-88.2673,28.2,22.6,11111222
Murphy,ioos:station:wmo:42397:2,2023-02-03T21:33:00Z,28.7547,-88.2673,28.2,22.6,11111222
Murphy,ioos:station:wmo:42397:2,2023-02-03T21:53:00Z,28.7547,-88.2673,28.2,22.6,11111222
Murphy,ioos:station:wmo:42397:2,2023-02-03T22:12:00Z,28.7547,-88.2673,28.2,22.6,11111222
Murphy,ioos:station:wmo:42397:2,2023-02-03T22:32:00Z,28.7547,-88.2673,28.2,22.6,11111222
Murphy,ioos:station:wmo:42397:2,2023-02-03T22:52:00Z,28.7547,-88.2673,28.2,22.6,11111222
Murphy,ioos:station:wmo:42397:2,2023-02-03T23:12:00Z,28.7547,-88.2673,28.2,22.6,11111222
Murphy,ioos:station:wmo:42397:2,2023-02-03T23:32:00Z,28.7547,-88.2673,28.2,22.6,11111222
Murphy,ioos:station:wmo:42397:2,2023-02-03T23:52:00Z,28.7547,-88.2673,28.2,22.7,11111222
Murphy,ioos:station:wmo:42397:2,2023-02-04T00:12:00Z,28.7547,-88.2673,28.2,22.8,11111222
Murphy,ioos:station:wmo:42397:2,2023-02-04T00:32:00Z,28.7547,-88.2673,28.2,22.9,11111222
Murphy,ioos:station:wmo:42397:2,2023-02-04T00:52:00Z,28.7547,-88.2673,28.2,23.1,11111222
Murphy,ioos:station:wmo:42397:2,2023-02-04T01:12:00Z,28.7547,-88.2673,28.2,23.1,11111222
Murphy,ioos:station:wmo:42397:2,2023-02-04T01:32:00Z,28.7547,-88.2673,28.2,23.0,11111222
Murphy,ioos:station:wmo:42397:2,2023-02-04T01:52:00Z,28.7547,-88.2673,28.2,23.3,11111222
Murphy,ioos:station:wmo:42397:2,2023-02-04T02:12:00Z,28.7547,-88.2673,28.2,23.4,11111222
Murphy,ioos:station:wmo:42397:2,2023-02-04T02:32:00Z,28.7547,-88.2673,28.2,23.4,11111222
Murphy,ioos:station:wmo:42397:2,2023-02-04T02:52:00Z,28.7547,-88.2673,28.2,23.4,11111222
Murphy,ioos:station:wmo:42397:2,2023-02-04T03:12:00Z,28.7547,-88.2673,28.2,23.4,11111222
Murphy,ioos:station:wmo:42397:2,2023-02-04T03:32:00Z,28.7547,-88.2673,28.2,23.5,11111222
Murphy,ioos:station:wmo:42397:2,2023-02-04T03:52:00Z,28.7547,-88.2673,28.2,23.5,11111222
Murphy,ioos:station:wmo:42397:2,2023-02-04T04:12:00Z,28.7547,-88.2673,28.2,23.5,11111222
Murphy,ioos:station:wmo:42397:2,2023-02-04T04:32:00Z,28.7547,-88.2673,28.2,23.5,11111222
Murphy,ioos:station:wmo:42397:2,2023-02-04T04:52:00Z,28.7547,-88.2673,28.2,23.5,11111222
Murphy,ioos:station:wmo:42397:2,2023-02-04T05:12:00Z,28.7547,-88.2673,28.2,23.5,11111222
Murphy,ioos:station:wmo:42397:2,2023-02-04T05:32:00Z,28.7547,-88.2673,28.2,23.5,11111222
Murphy,ioos:station:wmo:42397:2,2023-02-04T05:52:00Z,28.7547,-88.2673,28.2,23.5,11111222
Murphy,ioos:station:wmo:42397:2,2023-02-04T06:12:00Z,28.7547,-88.2673,28.2,23.5,11111222
Murphy,ioos:station:wmo:42397:2,2023-02-04T06:32:00Z,28.7547,-88.2673,28.2,23.5,11111222
Murphy,ioos:station:wmo:42397:2,2023-02-04T06:52:00Z,28.7547,-88.2673,28.2,23.5,11111222
Murphy,ioos:station:wmo:42397:2,2023-02-04T07:12:00Z,28.7547,-88.2673,28.2,23.5,11111222
Murphy,ioos:station:wmo:42397:2,2023-02-04T07:32:00Z,28.7547,-88.2673,28.2,23.5,11111222
Murphy,ioos:station:wmo:42397:2,2023-02-04T07:52:00Z,28.7547,-88.2673,28.2,23.5,11111222
Murphy,ioos:station:wmo:42397:2,2023-02-04T08:12:00Z,28.7547,-88.2673,28.2,23.4,11111222
Murphy,ioos:station:wmo:42397:2,2023-02-04T08:32:00Z,28.7547,-88.2673,28.2,23.3,11111222
Murphy,ioos:station:wmo:42397:2,2023-02-04T08:52:00Z,28.7547,-88.2673,28.2,23.2,11111222
Murphy,ioos:station:wmo:42397:2,2023-02-04T09:12:00Z,28.7547,-88.2673,28.2,23.3,11111222
Murphy,ioos:station:wmo:42397:2,2023-02-04T09:32:00Z,28.7547,-88.2673,28.2,23.4,11111222
Murphy,ioos:station:wmo:42397:2,2023-02-04T09:52:00Z,28.7547,-88.2673,28.2,23.4,11111222
Murphy,ioos:station:wmo:42397:2,2023-02-04T10:12:00Z,28.7547,-88.2673,28.2,23.4,11111222
Murphy,ioos:station:wmo:42397:2,2023-02-04T10:32:00Z,28.7547,-88.2673,28.2,23.5,11111222
Murphy,ioos:station:wmo:42397:2,2023-02-04T10:52:00Z,28.7547,-88.2673,28.2,23.3,11111222
Murphy,ioos:station:wmo:42397:2,2023-02-04T11:12:00Z,28.7547,-88.2673,28.2,23.0,11111222
Murphy,ioos:station:wmo:42397:2,2023-02-04T11:32:00Z,28.7547,-88.2673,28.2,23.2,11111222
Murphy,ioos:station:wmo:42397:2,2023-02-04T11:52:00Z,28.7547,-88.2673,28.2,22.9,11111222
Murphy,ioos:station:wmo:42397:2,2023-02-04T12:12:00Z,28.7547,-88.2673,28.2,23.3,11111222
Murphy,ioos:station:wmo:42397:2,2023-02-04T12:32:00Z,28.7547,-88.2673,28.2,23.4,11111222
Murphy,ioos:station:wmo:42397:2,2023-02-04T12:52:00Z,28.7547,-88.2673,28.2,23.4,11111222
Murphy,ioos:station:wmo:42397:2,2023-02-04T13:12:00Z,28.7547,-88.2673,28.2,23.4,11111222
Murphy,ioos:station:wmo:42397:2,2023-02-04T13:31:00Z,28.7547,-88.2673,28.2,23.4,11111222
Murphy,ioos:station:wmo:42397:2,2023-02-04T13:51:00Z,28.7547,-88.2673,28.2,23.4,11111222
Murphy,ioos:station:wmo:42397:2,2023-02-04T14:11:00Z,28.7547,-88.2673,28.2,23.4,11111222
Murphy,ioos:station:wmo:42397:2,2023-02-04T14:31:00Z,28.7547,-88.2673,28.2,23.4,11111222
Murphy,ioos:station:wmo:42397:2,2023-02-04T14:51:00Z,28.7547,-88.2673,28.2,23.5,11111222
Murphy,ioos:station:wmo:42397:2,2023-02-04T15:11:00Z,28.7547,-88.2673,28.2,23.5,11111222
Murphy,ioos:station:wmo:42397:2,2023-02-04T15:31:00Z,28.7547,-88.2673,28.2,23.5,11111222